Location: Unspecified
(52.0000°N, 4.4000°E)
Time: 17:34:57
(UTC+00:00)

Cosmos 1697 Rocket - Pass Details

Date: 14 May 2025
Orbit: 830 x 844 km, 71.0° (Epoch: 16 June)

Event Time Altitude Azimuth Distance (km) Brightness Sun altitude
Rises 20:55:12 0° 330° (NNW) 3,404 7.9 -10.7°
Reaches altitude 10° 20:57:44 10° 335° (NNW) 2,468 6.5 -11.0°
Maximum altitude 21:03:15 51° 52° (NE) 1,053 3.2 -11.5°
Enters shadow 21:07:55 14° 125° (SE) 2,159 4.2 -11.9°
